Regional Weather Roundup
Issued by NWS Goodland, KS

Home | Current Version | Previous Version | Graphics & Text | Print | Product List | Glossary On
Versions: 1 2 3 4 5 6 7 8 9 10 11 12 13 14 15 16 17 18 19 20 21 22 23 24 25 26 27 28 29 30 31 32 33 34 35 36 37 38 39 40 41 42 43 44 45 46 47 48 49 50
000
ASUS43 KGLD 280008
RWRGLD

GOODLAND FORECAST AREA HOURLY WEATHER ROUNDUP
NATIONAL WEATHER SERVICE GOODLAND KS
600 PM MDT THU AUG 27 2015

...OFFICIAL OBSERVATIONS...

CITY           SKY/WX    TMP DP  RH WIND       PRES   REMARKS
GOODLAND KS    PTSUNNY   89  48  24 NW15G22   29.92S
HILL CITY KS   SUNNY     97  54  23 W8        29.79F
IMPERIAL NEB   MOSUNNY   82  60  47 N7        29.89R
MCCOOK NEB     MOSUNNY   92  57  30 W10       29.81S
AKRON CO       PTSUNNY   78  56  46 N25G36    30.06R
BURLINGTON CO  CLOUDY    88  47  24 NW15      29.99R
LIMON CO       CLOUDY    76  50  40 N22G30    30.12R
$$

...UNOFFICIAL OBSERVATIONS...

CITY           SKY/WX    TMP DP  RH WIND       PRES   REMARKS
COLBY KS       SUNNY     91  63  38 NW10G16   29.88S
GOVE KS          N/A     95  32  11 MISG        N/A
LENORA KS        N/A     93  32  11 MISG        N/A
NORTON KS      SUNNY     86  55  35 SW3       29.79
SHARON SPRINGS   N/A     83  64  52 CALM        N/A
TRENTON NEB      N/A     86  32  14 NW10        N/A
KIT CARSON CO    N/A     74  59  59 MISG        N/A
YUMA CO          N/A     77  62  59 NE14G21     N/A
$$


USA.gov is the U.S. government's official web portal to all federal, state and local government web resources and services.